This is the latest recevied weather packets stored in our database for station/object KI7CSN-13. If no packets are shown the sender has not sent any weather packets the latest 10 day(s).
| Time | Temp. | Humidity | Pressure | Rain* | Wind** | Luminosity | Snow |
|---|---|---|---|---|---|---|---|
| 1777828666 | 26.11° C | 23% | 982.2 hPa | 0 mm | - | - | - |
| 1777828366 | 25° C | 25% | 982.2 hPa | 0 mm | - | - | - |
| 1777828066 | 25° C | 25% | 982.2 hPa | 0 mm | - | - | - |
| 1777827766 | 25° C | 25% | 982.3 hPa | 0 mm | - | - | - |
| 1777827466 | 24.44° C | 25% | 982.3 hPa | 0 mm | - | - | - |
| 1777827166 | 25° C | 24% | 982.2 hPa | 0 mm | - | - | - |
| 1777826866 | 24.44° C | 24% | 982.2 hPa | 0 mm | - | - | - |
| 1777826566 | 23.89° C | 24% | 982.2 hPa | 0 mm | - | - | - |
| 1777826266 | 23.89° C | 24% | 982.2 hPa | 0 mm | - | - | - |
| 1777825966 | 23.33° C | 24% | 982.2 hPa | 0 mm | - | - | - |
| 1777825666 | 23.33° C | 23% | 982.3 hPa | 0 mm | - | - | - |
| 1777825366 | 23.33° C | 23% | 982.4 hPa | 0 mm | - | - | - |
| 1777825066 | 23.33° C | 23% | 982.3 hPa | 0 mm | - | - | - |
| 1777824766 | 23.33° C | 23% | 982.3 hPa | 0 mm | - | - | - |
| 1777824466 | 22.78° C | 23% | 982.3 hPa | 0 mm | - | - | - |
| 1777824166 | 22.78° C | 23% | 982.4 hPa | 0 mm | - | - | - |
| 1777823866 | 22.78° C | 24% | 982.5 hPa | 0 mm | - | - | - |
| 1777823566 | 22.22° C | 23% | 982.5 hPa | 0 mm | - | - | - |
| 1777823266 | 21.67° C | 24% | 982.5 hPa | 0 mm | - | - | - |
| 1777822966 | 21.11° C | 24% | 982.5 hPa | 0 mm | - | - | - |
| 1777822666 | 21.67° C | 25% | 982.5 hPa | 0 mm | - | - | - |
| 1777822366 | 21.11° C | 25% | 982.6 hPa | 0 mm | - | - | - |
| 1777822066 | 21.11° C | 25% | 982.6 hPa | 0 mm | - | - | - |
| 1777821766 | 20.56° C | 25% | 982.6 hPa | 0 mm | - | - | - |
| 1777821466 | 20.56° C | 25% | 982.8 hPa | 0 mm | - | - | - |
* Rain latest hour (hover to see other rain measurements)
** Current wind speed in m/s (hover to see current wind gust speed)